GW5527 Weather Reports


time (UTC)temp
C
wind
direction
speed
KPH
gust
KPH
rain 1hr
cm
rain 24hr
cm
rain mn
cm
humidity
%
barometer
mb
20260906150712 21 138 6.4 6.4 0.00 0.00 0.00 96 977.3
20260906150207 21 144 3.2 3.2 0.00 0.00 0.00 96 977.3
20260906145706 21 138 4.8 4.8 0.00 0.00 0.00 96 977.3
20260906145205 21 133 3.2 3.2 0.00 0.00 0.00 96 977.3
20260906144700 21 138 3.2 3.2 0.00 0.00 0.00 96 977.6
20260906144155 21 138 6.4 6.4 0.00 0.00 0.00 96 977.3
20260906143655 21 152 6.4 6.4 0.00 0.00 0.00 96 977.3
20260906143152 21 138 6.4 8.0 0.00 0.00 0.00 96 977.3
20260906142651 21 142 6.4 6.4 0.00 0.00 0.00 96 977.3
20260906142146 21 104 9.7 11.3 0.00 0.00 0.00 96 977.3
20260906141645 21 150 3.2 3.2 0.00 0.00 0.00 95 977.3
20260906141140 21 98 6.4 6.4 0.00 0.00 0.00 95 977.3
20260906140639 21 120 11.3 11.3 0.00 0.00 0.00 95 977.3
20260906140135 21 72 6.4 6.4 0.00 0.00 0.00 95 977.3
20260906135631 21 72 6.4 8.0 0.00 0.00 0.00 94 977.3
20260906135127 22 151 4.8 4.8 0.00 0.00 0.00 94 977.0
20260906134623 22 162 6.4 6.4 0.00 0.00 0.00 93 977.0
20260906134118 22 151 4.8 4.8 0.00 0.00 0.00 93 977.3
20260906133614 21 138 3.2 3.2 0.00 0.00 0.00 94 977.3
20260906133109 21 133 6.4 8.0 0.00 0.00 0.00 95 977.3
20260906132604 21 150 6.4 6.4 0.00 0.00 0.00 96 977.3
20260906132100 21 133 3.2 3.2 0.00 0.00 0.00 96 977.6
20260906131555 21 128 3.2 3.2 0.00 0.00 0.00 96 977.3
20260906131050 21 168 4.8 4.8 0.00 0.00 0.00 96 977.3
20260906130549 21 150 3.2 3.2 0.00 0.00 0.00 96 977.3
20260906130045 21 138 4.8 4.8 0.00 0.00 0.00 97 977.0
20260906125542 21 132 3.2 3.2 0.00 0.00 0.00 97 977.0
20260906125037 21 148 3.2 3.2 0.00 0.00 0.00 97 977.0
20260906124532 21 132 3.2 3.2 0.00 0.00 0.00 97 977.0
20260906124027 20 138 3.2 3.2 0.00 0.00 0.00 97 976.6
20260906123526 20 144 8.0 8.0 0.00 0.00 0.00 97 977.0
20260906123021 20 127 6.4 6.4 0.00 0.00 0.00 97 977.0
20260906122515 20 134 3.2 3.2 0.00 0.00 0.00 97 976.6
20260906122012 20 138 3.2 3.2 0.00 0.00 0.00 97 976.6
20260906121508 20 138 0.0 0.0 0.00 0.00 0.00 97 976.6
20260906121003 20 116 3.2 3.2 0.00 0.00 0.00 97 976.6
20260906120458 20 138 3.2 3.2 0.00 0.00 0.00 97 976.6
20260906115955 20 108 3.2 3.2 0.00 0.00 0.00 97 976.3
20260906115450 20 138 4.8 4.8 0.00 0.00 0.00 97 976.6
20260906114949 20 138 3.2 3.2 0.00 0.00 0.00 97 976.3
20260906114444 20 138 3.2 3.2 0.00 0.00 0.00 97 976.6
20260906113940 20 132 3.2 3.2 0.00 0.00 0.00 97 976.3
20260906113439 20 132 3.2 3.2 0.00 0.00 0.00 97 976.3
20260906112934 20 132 3.2 3.2 0.00 0.00 0.00 97 976.3
20260906112430 20 133 0.0 0.0 0.00 0.00 0.00 97 976.3
20260906111925 20 138 6.4 6.4 0.00 0.00 0.00 96 976.3
20260906111425 20 126 3.2 3.2 0.00 0.00 0.00 97 976.3
20260906110920 21 84 3.2 3.2 0.00 0.00 0.00 96 976.6
20260906110415 21 84 3.2 3.2 0.00 0.00 0.00 96 976.3
20260906105914 21 142 3.2 3.2 0.00 0.00 0.00 96 976.3
20260906105410 21 150 3.2 3.2 0.00 0.00 0.00 96 976.3
20260906104906 21 156 3.2 3.2 0.00 0.00 0.00 96 976.3
20260906104404 21 123 3.2 3.2 0.00 0.00 0.00 96 976.3
20260906103903 21 134 6.4 6.4 0.00 0.00 0.00 96 976.0
20260906103401 21 72 6.4 6.4 0.00 0.00 0.00 96 976.3
20260906102858 21 132 3.2 3.2 0.00 0.00 0.00 96 976.0
20260906102357 21 138 3.2 3.2 0.00 0.00 0.00 96 976.0
20260906101851 21 134 3.2 3.2 0.00 0.00 0.00 96 976.0
20260906101347 21 138 4.8 4.8 0.00 0.00 0.00 96 976.0
20260906100842 21 132 3.2 3.2 0.00 0.00 0.00 95 976.3
20260906100341 21 138 3.2 3.2 0.00 0.00 0.00 95 976.3
20260906095836 21 138 6.4 6.4 0.00 0.00 0.00 95 976.3
20260906095332 21 149 3.2 3.2 0.00 0.00 0.00 95 976.3
20260906094831 21 184 3.2 3.2 0.00 0.00 0.00 95 976.3
20260906094327 21 134 6.4 6.4 0.00 0.00 0.00 95 976.3
20260906093823 21 155 0.0 0.0 0.00 0.00 0.00 95 976.3
20260906093318 21 156 3.2 3.2 0.00 0.00 0.00 94 976.3
20260906092808 21 198 6.4 6.4 0.00 0.00 0.00 94 976.0
20260906092307 21 126 3.2 3.2 0.00 0.00 0.00 95 976.0
20260906091803 21 133 3.2 3.2 0.00 0.00 0.00 95 975.6
20260906091259 21 143 0.0 0.0 0.00 0.00 0.00 96 975.6
20260906090755 21 132 3.2 3.2 0.00 0.00 0.00 96 975.6
20260906090254 21 128 0.0 0.0 0.00 0.00 0.00 96 976.0
20260906085754 21 133 3.2 3.2 0.00 0.00 0.00 95 975.6
20260906085253 21 180 3.2 3.2 0.00 0.00 0.00 95 976.0
20260906084748 21 143 3.2 3.2 0.00 0.00 0.00 95 976.0
20260906084248 21 181 3.2 3.2 0.00 0.00 0.00 96 976.0
20260906083743 21 144 0.0 0.0 0.00 0.00 0.00 96 975.6
20260906083238 21 161 0.0 0.0 0.00 0.00 0.00 96 975.6
20260906082734 21 128 0.0 0.0 0.00 0.00 0.00 96 975.3
20260906082229 21 138 0.0 0.0 0.00 0.00 0.00 96 975.3
20260906081725 21 138 3.2 3.2 0.00 0.00 0.00 96 975.6
20260906081225 21 132 3.2 3.2 0.00 0.00 0.00 96 975.3
20260906080722 21 138 3.2 3.2 0.00 0.00 0.00 95 975.6
20260906080218 21 142 6.4 6.4 0.00 0.00 0.00 96 975.6
20260906075717 21 126 3.2 3.2 0.00 0.00 0.00 96 975.6
20260906075212 21 138 4.8 4.8 0.00 0.00 0.00 96 976.0
20260906074707 21 114 6.4 6.4 0.00 0.00 0.00 96 976.0
20260906074206 21 138 8.0 8.0 0.00 0.00 0.00 96 975.6
20260906073701 21 149 4.8 4.8 0.00 0.00 0.00 96 975.6
20260906073156 21 127 3.2 3.2 0.00 0.00 0.00 96 975.6
20260906072652 21 78 6.4 6.4 0.00 0.00 0.00 96 975.6
20260906072147 21 138 6.4 6.4 0.00 0.00 0.00 97 976.0
20260906071644 21 90 6.4 8.0 0.00 0.00 0.00 97 976.3
20260906071138 21 76 3.2 3.2 0.00 0.00 0.00 97 976.3
20260906070635 21 42 3.2 3.2 0.00 0.00 0.00 97 976.0
20260906070130 21 133 3.2 3.2 0.00 0.00 0.00 98 976.0
20260906065630 21 134 0.0 0.0 0.00 0.00 0.00 99 976.0
20260906065125 21 162 4.8 4.8 0.00 0.00 0.00 99 975.6
20260906064620 21 138 3.2 3.2 0.00 0.00 0.00 99 976.0
20260906064115 21 132 3.2 3.2 0.00 0.00 0.00 99 976.0
20260906063615 21 110 3.2 3.2 0.00 0.00 0.00 99 975.6
20260906063112 21 90 0.0 0.0 0.00 0.00 0.00 99 976.3
20260906062607 21 72 3.2 3.2 0.00 0.00 0.00 99 976.0
20260906062106 21 132 3.2 3.2 0.00 0.00 0.00 99 976.0
20260906061603 21 160 3.2 3.2 0.00 0.00 0.00 99 976.0
20260906061102 21 54 3.2 3.2 0.00 0.00 0.00 99 976.0
20260906060559 21 84 0.0 0.0 0.00 0.00 0.00 99 976.0
20260906060056 21 102 3.2 3.2 0.00 0.00 0.00 99 976.0
20260906055551 21 120 0.0 0.0 0.00 0.00 0.00 98 976.0
20260906055047 21 138 0.0 0.0 0.00 0.00 0.00 98 976.0
20260906054547 21 148 3.2 3.2 0.00 0.00 0.00 98 976.0
20260906054042 21 96 0.0 0.0 0.00 0.00 0.00 99 976.3
20260906053538 21 122 0.0 0.0 0.00 0.00 0.00 99 976.0
20260906053034 21 128 0.0 0.0 0.00 0.00 0.00 99 976.0
20260906052529 21 84 3.2 3.2 0.00 0.00 0.00 99 975.6
20260906052026 21 66 0.0 0.0 0.00 0.00 0.00 99 975.6
20260906051527 21 133 0.0 0.0 0.00 0.00 0.00 99 975.6
20260906051022 21 142 0.0 0.0 0.00 0.00 0.00 99 976.0
20260906050517 21 98 0.0 0.0 0.00 0.00 0.00 99 975.6
20260906050012 21 122 3.2 3.2 0.00 0.00 0.00 99 975.6
20260906045510 21 144 0.0 0.0 0.00 0.00 0.00 99 975.6
20260906045006 21 149 3.2 3.2 0.00 0.00 0.00 99 976.0
20260906044501 21 72 3.2 3.2 0.00 0.00 0.00 99 976.0
20260906043957 21 72 0.0 0.0 0.00 0.00 0.00 99 975.6
20260906043452 21 90 0.0 0.0 0.00 0.00 0.00 99 975.6
20260906042948 21 90 0.0 0.0 0.00 0.00 0.00 99 975.6
20260906042447 21 84 3.2 3.2 0.00 0.00 0.00 99 975.6
20260906041942 21 84 0.0 0.0 0.00 0.00 0.00 99 975.3
20260906041439 21 84 0.0 0.0 0.00 0.00 0.00 99 975.6
20260906040938 21 132 0.0 0.0 0.00 0.00 0.00 99 976.0
20260906040433 21 132 0.0 0.0 0.00 0.00 0.00 99 975.6
20260906035928 21 138 0.0 0.0 0.00 0.00 0.00 99 975.6
20260906035423 21 66 3.2 3.2 0.00 0.00 0.00 99 975.3
20260906034919 21 78 0.0 0.0 0.00 0.00 0.00 99 975.6
20260906034419 21 72 0.0 0.0 0.00 0.00 0.00 99 975.6
20260906033914 21 96 0.0 0.0 0.00 0.00 0.00 99 975.6
20260906033414 21 96 0.0 0.0 0.00 0.00 0.00 99 975.6
20260906032910 21 78 3.2 3.2 0.00 0.00 0.00 99 975.6
20260906032406 21 90 0.0 0.0 0.00 0.00 0.00 99 975.6
20260906031900 22 90 3.2 3.2 0.00 0.00 0.00 99 975.6
20260906031356 22 108 0.0 0.0 0.00 0.00 0.00 99 975.6
20260906030851 22 96 3.2 3.2 0.00 0.00 0.00 99 975.6
20260906030346 22 72 0.0 0.0 0.00 0.00 0.00 99 975.6
20260906025841 22 126 0.0 0.0 0.00 0.00 0.00 98 975.6
20260906025334 22 142 0.0 0.0 0.00 0.00 0.00 98 976.0
20260906024833 22 108 0.0 0.0 0.00 0.00 0.00 98 975.6
20260906024333 22 122 3.2 3.2 0.00 0.00 0.00 98 976.0
20260906023828 22 90 0.0 0.0 0.00 0.00 0.00 98 976.0
20260906023324 22 78 0.0 0.0 0.00 0.00 0.00 98 976.0
20260906022820 22 78 3.2 3.2 0.00 0.00 0.00 98 975.6
20260906022314 22 84 0.0 0.0 0.00 0.00 0.00 98 975.6
20260906021811 22 84 0.0 0.0 0.00 0.00 0.00 98 975.3
20260906021310 22 126 3.2 3.2 0.00 0.00 0.00 97 975.6
20260906020810 22 60 0.0 0.0 0.00 0.00 0.00 97 975.6
20260906020309 22 76 0.0 0.0 0.00 0.00 0.00 96 975.3
20260906015804 22 76 0.0 0.0 0.00 0.00 0.00 96 975.6
20260906015305 22 76 3.2 3.2 0.00 0.00 0.00 96 975.3
20260906014757 22 78 0.0 0.0 0.00 0.00 0.00 96 975.3
20260906014253 23 78 0.0 0.0 0.00 0.00 0.00 96 974.9
20260906013749 23 84 3.2 3.2 0.00 0.00 0.00 95 975.3
20260906013249 23 78 3.2 3.2 0.00 0.00 0.00 95 975.3
20260906012744 23 66 0.0 0.0 0.00 0.00 0.00 94 974.9
20260906012239 23 72 0.0 0.0 0.00 0.00 0.00 94 974.9
20260906011735 23 90 3.2 3.2 0.00 0.00 0.00 93 974.6
20260906011234 23 76 3.2 3.2 0.00 0.00 0.00 93 974.6
20260906010730 24 114 3.2 3.2 0.00 0.00 0.00 92 974.9
20260906010226 24 122 3.2 3.2 0.00 0.00 0.00 92 974.6
20260906005721 24 90 0.0 0.0 0.00 0.00 0.00 93 974.6
20260906005220 24 78 0.0 0.0 0.00 0.00 0.00 93 974.6
20260906004719 25 78 3.2 3.2 0.00 0.00 0.00 93 974.6
20260906004214 25 76 3.2 3.2 0.00 0.00 0.00 92 974.6
20260906003709 25 76 4.8 4.8 0.00 0.00 0.00 91 974.6
20260906003205 25 70 3.2 3.2 0.00 0.00 0.00 89 974.6
20260906002705 26 84 0.0 0.0 0.00 0.00 0.00 88 974.6
20260906002200 26 84 3.2 3.2 0.00 0.00 0.00 87 974.6
20260906001655 26 84 3.2 3.2 0.00 0.00 0.00 87 974.6
20260906001155 26 122 3.2 3.2 0.00 0.00 0.00 86 974.6
20260906000651 26 127 3.2 3.2 0.00 0.00 0.00 85 974.6
20260906000146 26 132 3.2 3.2 0.00 0.00 0.00 86 974.6
20260905235645 26 138 3.2 3.2 0.00 0.00 0.00 85 974.6
20260905235140 27 144 3.2 3.2 0.00 0.00 0.00 84 974.6
20260905234635 27 121 3.2 3.2 0.00 0.00 0.00 84 974.6
20260905234131 26 102 0.0 0.0 0.00 0.00 0.00 84 974.3
20260905233626 26 132 0.0 0.0 0.00 0.00 0.00 84 974.6
20260905233125 27 96 3.2 3.2 0.00 0.00 0.00 83 974.6
20260905232621 27 132 3.2 3.2 0.00 0.00 0.00 83 974.6
20260905232117 27 133 3.2 3.2 0.00 0.00 0.00 83 974.6
20260905231617 27 156 3.2 3.2 0.00 0.00 0.00 83 974.3
20260905231113 27 194 3.2 3.2 0.00 0.00 0.00 82 974.3
20260905230609 27 188 0.0 0.0 0.00 0.00 0.00 82 974.6
20260905230107 27 132 3.2 3.2 0.00 0.00 0.00 82 974.3
20260905225606 27 132 3.2 3.2 0.00 0.00 0.00 82 974.3
20260905225101 27 130 3.2 3.2 0.00 0.00 0.00 82 974.3
20260905224601 27 99 6.4 6.4 0.00 0.00 0.00 81 974.3
20260905224101 27 144 3.2 3.2 0.00 0.00 0.00 82 974.3
20260905223558 27 132 3.2 3.2 0.00 0.00 0.00 83 973.9
20260905223054 27 132 3.2 3.2 0.00 0.00 0.00 84 974.3
20260905222554 27 102 3.2 3.2 0.00 0.00 0.00 84 973.9
20260905222049 26 120 3.2 3.2 0.00 0.00 0.00 84 974.3
20260905221546 26 132 4.8 4.8 0.00 0.00 0.00 84 973.9
20260905221042 26 96 3.2 3.2 0.00 0.00 0.00 85 973.9
20260905220537 26 132 6.4 6.4 0.00 0.00 0.00 86 973.9
20260905220033 26 130 4.8 4.8 0.00 0.00 0.00 84 973.6
20260905215532 26 146 3.2 3.2 0.00 0.00 0.00 84 973.9
20260905215029 26 132 4.8 4.8 0.00 0.00 0.00 84 973.6
20260905214524 27 72 6.4 8.0 0.00 0.00 0.00 82 973.2
20260905214019 27 86 3.2 3.2 0.00 0.00 0.00 83 973.6
20260905213514 27 138 6.4 6.4 0.00 0.00 0.00 82 973.9
20260905213010 27 75 3.2 3.2 0.00 0.00 0.00 82 974.3
20260905212505 27 60 6.4 6.4 0.00 0.00 0.00 80 973.9
20260905212004 27 70 3.2 3.2 0.00 0.00 0.00 80 973.9
20260905211459 27 71 3.2 3.2 0.00 0.00 0.00 80 974.3
20260905210955 27 66 3.2 3.2 0.00 0.00 0.00 80 974.3
20260905210451 27 138 6.4 6.4 0.00 0.00 0.00 78 974.3
20260905205950 27 66 3.2 3.2 0.00 0.00 0.00 77 974.6
20260905205445 27 96 6.4 6.4 0.00 0.00 0.00 74 974.3
20260905204943 27 71 6.4 6.4 0.00 0.00 0.00 75 974.3
20260905204439 28 83 3.2 3.2 0.00 0.00 0.00 73 974.6
20260905203938 28 84 4.8 4.8 0.00 0.00 0.00 73 973.9
20260905203434 27 90 8.0 9.7 0.00 0.00 0.00 74 974.3
20260905202930 27 48 11.3 12.9 0.00 0.00 0.00 75 974.3
20260905202425 27 84 8.0 9.7 0.00 0.00 0.00 75 974.3
20260905201920 27 150 3.2 3.2 0.00 0.00 0.00 76 974.3
20260905201415 26 144 11.3 12.9 0.00 0.00 0.00 75 973.9
20260905200915 26 108 3.2 3.2 0.00 0.00 0.00 77 974.3
20260905200411 26 96 3.2 3.2 0.00 0.00 0.00 78 974.3
20260905195909 26 97 3.2 3.2 0.00 0.00 0.00 79 974.3
20260905195404 26 114 3.2 3.2 0.00 0.00 0.00 79 974.6
20260905194900 26 132 4.8 4.8 0.00 0.00 0.00 80 974.3
20260905194359 26 91 3.2 3.2 0.00 0.00 0.00 81 974.3
20260905193859 25 144 3.2 3.2 0.00 0.00 0.00 82 974.3
20260905193354 25 140 3.2 3.2 0.00 0.00 0.00 82 973.9
20260905192850 25 104 0.0 0.0 0.00 0.00 0.00 82 973.6
20260905192345 25 138 3.2 3.2 0.00 0.00 0.00 83 973.9
20260905191844 25 144 3.2 3.2 0.00 0.00 0.00 82 973.6
20260905191344 25 120 3.2 3.2 0.00 0.00 0.00 82 973.9
20260905190843 25 58 3.2 3.2 0.00 0.00 0.00 83 973.6
20260905190342 25 138 3.2 3.2 0.00 0.00 0.00 84 973.9
20260905185841 25 126 6.4 6.4 0.00 0.00 0.00 83 974.3
20260905185337 25 150 3.2 3.2 0.00 0.00 0.00 83 974.3
20260905184835 25 134 6.4 6.4 0.00 0.00 0.00 84 974.6
20260905184335 25 126 8.0 8.0 0.00 0.00 0.00 83 974.6
20260905183833 25 114 0.0 0.0 0.00 0.00 0.00 84 974.3
20260905183329 25 42 3.2 3.2 0.00 0.00 0.00 84 974.3
20260905182824 25 78 3.2 3.2 0.00 0.00 0.00 83 974.6
20260905182323 25 142 0.0 0.0 0.00 0.00 0.00 81 974.6
20260905181819 25 182 0.0 0.0 0.00 0.00 0.00 82 974.6
20260905181318 25 120 3.2 3.2 0.00 0.00 0.00 82 974.3
20260905180817 25 139 6.4 6.4 0.00 0.00 0.00 82 973.9
20260905180313 24 64 8.0 9.7 0.00 0.00 0.00 83 973.6
20260905175808 24 96 6.4 8.0 0.00 0.00 0.00 83 973.6
20260905175306 24 84 3.2 3.2 0.00 0.00 0.00 83 973.9
20260905174757 24 132 9.7 9.7 0.00 0.00 0.00 84 973.6
20260905174253 23 90 8.0 9.7 0.00 0.00 0.00 86 973.9
20260905173749 23 42 6.4 8.0 0.00 0.00 0.00 86 973.6
20260905173245 23 72 6.4 8.0 0.00 0.00 0.00 88 974.3
20260905172744 23 65 8.0 8.0 0.00 0.00 0.00 89 974.6
20260905172243 23 84 6.4 8.0 0.00 0.00 0.00 90 975.3
20260905171739 23 78 6.4 6.4 0.00 0.00 0.00 88 975.6
20260905171235 23 78 0.0 0.0 0.00 0.00 0.00 88 976.0
20260905170732 23 78 0.0 0.0 0.00 0.00 0.00 88 976.0
20260905170227 23 76 3.2 3.2 0.00 0.00 0.00 89 976.0
20260905165727 24 78 3.2 3.2 0.00 0.00 0.00 87 976.3
20260905165222 23 64 0.0 0.0 0.00 0.00 0.00 86 976.3
20260905164722 23 348 0.0 0.0 0.00 0.00 0.00 88 976.3
20260905164216 23 311 0.0 0.0 0.00 0.00 0.00 89 976.6
20260905163712 23 312 0.0 0.0 0.00 0.00 0.00 90 976.6
20260905163209 23 0 0.0 0.0 0.00 0.00 0.00 91 976.6
20260905162704 23 318 0.0 0.0 0.00 0.00 0.00 93 976.6
20260905162204 23 343 0.0 0.0 0.00 0.00 0.00 95 977.0
20260905161700 22 318 0.0 0.0 0.00 0.00 0.00 95 977.0
20260905161157 22 325 0.0 0.0 0.00 0.00 0.00 97 977.0
20260905160656 22 324 0.0 0.0 0.00 0.00 0.00 99 977.0
20260905160155 22 325 0.0 0.0 0.00 0.00 0.00 99 977.0
20260905155650 22 20 0.0 0.0 0.00 0.00 0.00 99 977.0
20260905155149 22 186 0.0 0.0 0.00 0.00 0.00 99 977.0
20260905154643 22 279 3.2 3.2 0.00 0.00 0.00 99 977.3
20260905154139 22 288 0.0 0.0 0.00 0.00 0.00 99 977.0
20260905153634 22 331 11.3 11.3 0.00 0.00 0.00 99 977.0
20260905153130 22 301 3.2 3.2 0.00 0.00 0.00 99 977.3
20260905152625 22 270 6.4 8.0 0.00 0.00 0.00 99 977.3
20260905152119 22 283 3.2 3.2 0.00 0.00 0.00 99 977.0
20260905151614 22 345 0.0 0.0 0.00 0.00 0.00 99 976.6
20260905151109 22 347 0.0 0.0 0.00 0.00 0.00 99 976.6